BMCB-31 Weather Reports


time (UTC)temp
C
wind
direction
speed
KPH
gust
KPH
rain 1hr
cm
rain 24hr
cm
rain mn
cm
humidity
%
barometer
mb
20260503033055 11 0 0.0 0.0 0.00 0.58 0.00 80 1015.2
20260503031054 12 0 0.0 0.0 0.00 0.58 0.00 78 1015.0
20260503025055 13 0 0.0 0.0 0.00 0.58 0.00 74 1014.9
20260503024056 13 0 0.0 0.0 0.00 0.58 0.00 73 1014.7
20260503023056 13 0 0.0 0.0 0.00 0.58 0.00 73 1014.7
20260503021055 13 0 0.0 0.0 0.00 0.58 0.00 74 1014.9
20260503020054 13 0 0.0 0.0 0.00 0.58 0.00 76 1015.0
20260503014056 13 0 0.0 0.0 0.00 0.58 0.00 76 1015.1
20260503013057 13 0 0.0 0.0 0.00 0.58 0.00 76 1015.2
20260503012055 13 0 0.0 0.0 0.00 0.58 0.00 76 1015.3
20260503011057 13 0 0.0 0.0 0.00 0.58 0.00 78 1015.5
20260503010058 13 0 0.0 0.0 0.00 0.58 0.00 77 1015.6
20260503005056 13 0 0.0 0.0 0.00 0.58 0.00 78 1015.7
20260503002057 13 0 0.0 0.0 0.00 0.58 0.00 77 1015.8
20260503001056 13 0 0.0 0.0 0.00 0.58 0.00 77 1016.0
20260503000100 13 0 0.0 0.0 0.00 0.58 0.00 77 1016.1
20260502235101 13 0 0.0 0.0 0.00 0.58 0.00 78 1016.1
20260502234101 13 0 0.0 0.0 0.00 0.58 0.00 78 1016.1
20260502233100 13 0 0.0 0.0 0.00 0.58 0.00 80 1016.2
20260502232059 13 0 0.0 0.0 0.00 0.58 0.00 80 1016.3
20260502231059 13 0 0.0 0.0 0.00 0.58 0.00 81 1016.4
20260502230058 13 0 0.0 0.0 0.00 0.58 0.00 82 1016.4
20260502225058 13 0 0.0 0.0 0.00 0.58 0.00 82 1016.5
20260502224102 14 0 0.0 0.0 0.00 0.58 0.00 81 1016.4
20260502222103 14 0 0.0 0.0 0.00 0.58 0.00 81 1016.5
20260502220058 13 0 0.0 0.0 0.00 0.58 0.00 85 1016.7
20260502215059 13 0 0.0 0.0 0.00 0.58 0.58 86 1016.8
20260502213103 13 0 0.0 0.0 0.00 0.58 0.58 84 1016.8
20260502212058 13 0 0.0 0.0 0.00 0.58 0.58 85 1016.8
20260502205055 13 0 0.0 0.0 0.00 0.58 0.58 85 1016.8
20260502204102 13 0 0.0 0.0 0.00 0.58 0.58 86 1017.0
20260502203105 13 0 0.0 0.0 0.00 0.58 0.58 85 1016.9
20260502202107 13 0 0.0 0.0 0.00 0.58 0.58 85 1016.9
20260502201102 13 0 0.0 0.0 0.00 0.58 0.58 86 1017.0
20260502200106 13 0 0.0 0.0 0.00 0.58 0.58 88 1017.1
20260502195059 13 0 0.0 0.0 0.00 0.58 0.58 89 1017.2
20260502194055 13 0 0.0 0.0 0.00 0.58 0.58 89 1017.1
20260502193057 13 0 0.0 0.0 0.00 0.58 0.58 93 1017.2
20260502191103 14 0 0.0 0.0 0.00 0.58 0.58 92 1017.1
20260502190104 14 0 0.0 0.0 0.00 0.58 0.58 89 1017.0
20260502184057 15 0 0.0 0.0 0.03 0.58 0.58 87 1017.0
20260502183058 15 0 0.0 0.0 0.03 0.58 0.58 86 1017.2
20260502182057 15 0 0.0 0.0 0.03 0.58 0.58 93 1017.4
20260502163059 20 0 0.0 0.0 0.25 0.33 0.33 68 1017.0
20260502162055 21 0 0.0 0.0 0.00 0.08 0.08 58 1015.9
20260502152101 21 0 0.0 0.0 0.00 0.08 0.08 56 1016.7
20260502151059 23 0 0.0 0.0 0.00 0.08 0.08 50 1016.6
20260502123054 20 0 0.0 0.0 0.08 0.08 0.08 70 1019.3
20260502121051 19 0 0.0 0.0 0.08 0.08 0.08 76 1019.9
20260502114053 21 0 0.0 0.0 0.00 0.00 0.00 54 1019.4
20260502113053 21 0 0.0 0.0 0.00 0.00 0.00 55 1019.6
20260502112053 21 0 0.0 0.0 0.00 0.00 0.00 53 1019.6
20260502111058 22 0 0.0 0.0 0.00 0.00 0.00 51 1019.5
20260502110052 22 0 0.0 0.0 0.00 0.00 0.00 51 1019.5
20260502104056 22 0 0.0 0.0 0.00 0.00 0.00 52 1019.8
20260502103056 21 0 0.0 0.0 0.00 0.00 0.00 52 1020.0
20260502101055 21 0 0.0 0.0 0.00 0.00 0.00 53 1020.3
20260502071054 15 0 0.0 0.0 0.00 0.00 0.00 60 1021.9
20260502070055 15 0 0.0 0.0 0.00 0.00 0.00 59 1021.7
20260502065056 15 0 0.0 0.0 0.00 0.00 0.00 57 1021.9
20260502064051 15 0 0.0 0.0 0.00 0.00 0.00 57 1022.1
20260502063054 15 0 0.0 0.0 0.00 0.00 0.00 57 1022.3
20260502062053 15 0 0.0 0.0 0.00 0.00 0.00 57 1022.4
20260502061053 15 0 0.0 0.0 0.00 0.00 0.00 56 1022.5
20260502060057 15 0 0.0 0.0 0.00 0.00 0.00 54 1022.5
20260502052052 14 0 0.0 0.0 0.00 0.00 0.00 47 1022.5
20260502051051 14 0 0.0 0.0 0.00 0.00 0.00 47 1022.5
20260502050053 13 0 0.0 0.0 0.00 0.00 0.00 47 1022.6
20260502044051 13 0 0.0 0.0 0.00 0.00 0.00 48 1022.5
20260502043057 13 0 0.0 0.0 0.00 0.00 0.00 46 1022.4
20260502042055 13 0 0.0 0.0 0.00 0.00 0.00 46 1022.4
20260502040055 13 0 0.0 0.0 0.00 0.00 0.00 44 1022.6
20260502035056 13 0 0.0 0.0 0.00 0.00 0.00 43 1022.8